Content
SEND FEEDBACK

Daily
Averages
Monthly
Summary
Germany

BERLIN, GERMANY


Home > Europe > Germany
Elevation: 157 feet     Latitude: 52 23N     Longitude: 013 31E

WEATHER
 
SELECT A DAY
Number of Records: 251,567;   Date Range: 7/3/96 - 7/27/14
 
SHARE

PRINT THIS DATA

[ ← Previous Day ]
WEATHER ALMANAC - JANUARY 31, 2013
[ Next Day → ]
[ °C ]   °F
Weather ElementAverageHighLow
Temperature44 °F48.2 °F (2:20 pm)41 °F (2:20 am)
Dewpoint34.3 °F37.4 °F (2:20 am)32 °F (7:50 am)
Humidity69.4 %87 % (2:20 am)54 % (2:20 pm)
Barometer29.66 in29.74 in (10:20 am)29.59 in (4:20 pm)
Wind Speed22.9 mph32.2 mph (7:50 am)
Wind Gust48.3 mph (8:50 am)
Weather ElementAverage
Visibility6.2 mi
Wind DirectionWSW (254.3 °)

Weather ElementTotal
Precipitation---
Heating Degree Days20.4 (Base 65)
Averaged from 47 records on January 31, 2013
WEATHER CONDITIONS BREAKOUT
WIND DIRECTION BREAKOUT
WEATHER BY HOUR - JANUARY 31, 2013
[ °C ]   °F
Local TimeTemperatureDewpointHumidityBarometerVisibilityWind DirectionWind SpeedGust SpeedPrecipitationEventsConditions
12:50 AM42.8 °F35.6 °F76 %29.62 inWSW (240°)24.2 mph35.7 mphClear
1:20 AM44.6 °F35.6 °F71 %29.62 in6.2 miWSW (240°)23.0 mphRainLight Rain
1:50 AM42.8 °F35.6 °F76 %29.65 in6.2 miWest (280°)23.0 mph36.8 mphRainLight Rain Showers
2:20 AM41.0 °F37.4 °F87 %29.68 in6.2 miWest (260°)19.6 mphScattered Clouds
2:50 AM42.8 °F37.4 °F81 %29.68 in6.2 miWest (260°)23.0 mph34.5 mphRainLight Rain
3:20 AM42.8 °F35.6 °F76 %29.68 in6.2 miWest (260°)24.2 mphScattered Clouds
3:50 AM42.8 °F37.4 °F81 %29.68 in6.2 miWSW (240°)20.7 mphScattered Clouds
4:20 AM42.8 °F37.4 °F81 %29.68 in6.2 miWSW (250°)20.7 mphMostly Cloudy
4:50 AM42.8 °F33.8 °F70 %29.68 in6.2 miWest (260°)26.5 mph42.6 mphMostly Cloudy
5:20 AM42.8 °F33.8 °F70 %29.71 in6.2 miWest (260°)24.2 mph36.8 mphMostly Cloudy
5:50 AM42.8 °F33.8 °F70 %29.71 in6.2 miWest (260°)23.0 mph35.7 mphMostly Cloudy
6:20 AM44.6 °F33.8 °F66 %29.68 in6.2 miWest (260°)27.6 mph39.1 mphScattered Clouds
6:50 AM44.6 °F33.8 °F66 %29.68 in6.2 miWest (260°)27.6 mph40.3 mphMostly Cloudy
7:20 AM44.6 °F33.8 °F66 %29.71 in6.2 miWest (260°)29.9 mph41.4 mphMostly Cloudy
7:50 AM44.6 °F32.0 °F61 %29.71 in6.2 miWest (260°)32.2 mph43.7 mphMostly Cloudy
8:20 AM44.6 °F32.0 °F61 %29.71 in6.2 miWest (260°)29.9 mph43.7 mphMostly Cloudy
8:50 AM44.6 °F32.0 °F61 %29.71 in6.2 miWest (270°)32.2 mph48.3 mphMostly Cloudy
9:20 AM44.6 °F32.0 °F61 %29.71 in6.2 miWest (270°)29.9 mph43.7 mphMostly Cloudy
9:50 AM44.6 °F32.0 °F61 %29.71 in6.2 miWest (270°)32.2 mph47.2 mphScattered Clouds
10:20 AM44.6 °F32.0 °F61 %29.74 in6.2 miWest (270°)32.2 mph46.0 mphScattered Clouds
10:50 AM44.6 °F32.0 °F61 %29.74 in6.2 miWest (260°)29.9 mph41.4 mphMostly Cloudy
11:20 AM44.6 °F33.8 °F66 %29.74 in6.2 miWest (260°)27.6 mphMostly Cloudy
11:50 AM46.4 °F33.8 °F62 %29.74 in6.2 miWest (260°)25.3 mphMostly Cloudy
12:20 PM46.4 °F33.8 °F62 %29.71 in6.2 miWSW (240°)21.9 mphMostly Cloudy
12:50 PM46.4 °F33.8 °F62 %29.71 in6.2 miWSW (250°)21.9 mphMostly Cloudy
1:20 PM46.4 °F32.0 °F57 %29.71 in6.2 miWest (260°)21.9 mphMostly Cloudy
1:50 PM46.4 °F32.0 °F57 %29.68 in6.2 miWSW (250°)20.7 mphMostly Cloudy
2:20 PM48.2 °F32.0 °F54 %29.68 in6.2 miWSW (240°)16.1 mphMostly Cloudy
2:50 PM46.4 °F32.0 °F57 %29.65 in6.2 miWSW (250°)18.4 mphMostly Cloudy
3:20 PM46.4 °F32.0 °F57 %29.62 in6.2 miSW (230°)15.0 mphMostly Cloudy
3:50 PM46.4 °F32.0 °F57 %29.62 in6.2 miWSW (240°)17.3 mphMostly Cloudy
4:20 PM44.6 °F32.0 °F61 %29.59 in6.2 miWSW (240°)15.0 mphMostly Cloudy
4:50 PM44.6 °F35.6 °F71 %29.59 in6.2 miWest (260°)27.6 mph43.7 mphRainLight Rain Showers
5:20 PM44.6 °F35.6 °F71 %29.59 in6.2 miWest (260°)28.8 mph41.4 mphMostly Cloudy
5:50 PM44.6 °F35.6 °F71 %29.59 in6.2 miWest (260°)23.0 mph39.1 mphMostly Cloudy
6:20 PM44.6 °F35.6 °F71 %29.59 in6.2 miWest (260°)23.0 mph34.5 mphMostly Cloudy
6:50 PM42.8 °F35.6 °F76 %29.59 in6.2 miWest (260°)17.3 mphMostly Cloudy
7:20 PM42.8 °F35.6 °F76 %29.59 in6.2 miWSW (250°)19.6 mphRainLight Rain
7:50 PM42.8 °F35.6 °F76 %29.59 in6.2 miWest (260°)18.4 mphMostly Cloudy
8:20 PM42.8 °F35.6 °F76 %29.59 in6.2 miWSW (250°)17.3 mph28.8 mphMostly Cloudy
8:50 PM42.8 °F35.6 °F76 %29.59 in6.2 miWest (260°)18.4 mphScattered Clouds
9:20 PM42.8 °F37.4 °F81 %29.59 in6.2 miWSW (250°)19.6 mphScattered Clouds
9:50 PM41.0 °F35.6 °F81 %29.59 in6.2 miWSW (250°)17.3 mphScattered Clouds
10:20 PM41.0 °F35.6 °F81 %29.62 in6.2 miWSW (250°)16.1 mphMostly Cloudy
10:50 PM41.0 °F35.6 °F81 %29.62 inSW (230°)15.0 mphClear
11:20 PM41.0 °F35.6 °F81 %29.59 inWSW (240°)19.6 mphClear
11:50 PM42.8 °F35.6 °F76 %29.59 in6.2 miWSW (240°)20.7 mphMostly Cloudy
Hourly data recorded from EDDB, located miles away from Berlin, Germany







STORIES FROM OUR PARTNERS